Location: Prague
(50.0830°N, 14.4670°E)
Time: 11:26:05
(UTC+01:00)

AO-7 - Pass Details

Date: 12 December 2021
Orbit: 1440 x 1459 km, 101.9° (Epoch: 29 January)

Event Time Altitude Azimuth Distance (km) Brightness Sun altitude
Rises 02:21:48 0° 29° (NNE) 4,553 ? -50.8°
Reaches altitude 10° 02:26:27 10° 52° (NE) 3,573 ? -50.2°
Maximum altitude 02:30:41 15° 83° (E) 3,220 ? -49.6°
Drops below altitude 10° 02:34:53 10° 115° (ESE) 3,570 ? -49.0°
Sets 02:39:29 0° 138° (SE) 4,546 ? -48.3°
